Meteo Giornale » Osservazioni meteo Egitto » Cairo

ore: 17:30 - Osservazioni Meteo Cairo
Lat. 30° 8' N Lon. 31° 24' E Alt. 64 metri s.l.m.

sereno Africa/Cairo

17 °C

Sereno

Temp. 24 Ore

9 °C

19 °C

Nord-Est

16.7 Km/h

Dew point 6 °C

Umidità 48 %

Visibilità  10 Km

Il sole sorge alle ore 06:48

Il sole tramonta alle ore 17:24

Data e Ora Cielo e Fenomeni T °C DP °C Um. % Pres. hPa Vis. km Vento km/h
Oggi h: 17:30 sereno Sereno 17 6 48 1021 10 NE 16.7
Oggi h: 17:00 sereno Sereno 18 5 42 1021 10 N/NE 24
Oggi h: 16:30 sereno Sereno 18 5 42 1021 10 NE 18.5
Oggi h: 16:00 sereno Sereno 18 5 42 1021 10 N/NE 20.3
Oggi h: 15:30 sereno Sereno 18 5 42 1021 10 N/NE 18.5
Oggi h: 15:00 sereno Sereno 18 5 42 1021 10 NE 18.5
Oggi h: 14:30 sereno Sereno 18 4 39 1021 10 NE 16.7
Oggi h: 14:00 sereno Sereno 19 4 37 1021 10 E/NE 16.7
Oggi h: 13:30 sereno Sereno 18 5 42 1021 10 E/NE 16.7
Oggi h: 13:00 sereno Sereno 18 5 42 1021 10 NE 18.5
Oggi h: 12:30 sereno Sereno 17 5 45 1021 10 NE 20.3
Oggi h: 12:00 sereno Sereno 17 6 48 1022 10 NE 16.7
Oggi h: 11:30 sereno Sereno 17 6 48 1023 10 N/NE 16.7
Oggi h: 11:00 sereno Sereno 15 5 51 1023 10 N/NE 16.7
Oggi h: 10:30 sereno Sereno 15 7 58 1024 6 N/NE 13
Oggi h: 10:00 sereno Sereno 14 7 62 1024 6 N/NE 13
Oggi h: 09:00 sereno Sereno 12 7 71 1023 10 NE 9.3
Oggi h: 08:30 sereno Sereno 11 6 71 1023 10 E 9.3
Oggi h: 08:00 sereno Sereno 10 6 76 1023 10 E 9.3
Oggi h: 07:30 sereno Sereno 9 6 81 1023 10 E 9.3
Oggi h: 07:00 sereno Sereno 9 6 81 1022 10 E 9.3
Oggi h: 06:30 sereno Sereno 9 5 75 1022 10 E/NE 9.3
Oggi h: 06:00 sereno Sereno 10 6 76 1022 10 E 7.4
Oggi h: 05:30 sereno Sereno 9 5 75 1022 10 E 7.4
Oggi h: 05:00 sereno Sereno 9 5 75 1021 10 E 11.1
Oggi h: 04:30 sereno Sereno 10 6 76 1021 10 E 9.3
Oggi h: 04:00 sereno Sereno 10 6 76 1021 10 E 7.4
Oggi h: 03:30 sereno Sereno 10 6 76 1022 10 E/NE 9.3
Oggi h: 03:00 sereno Sereno 10 6 76 1021 10 E/NE 11.1
Oggi h: 02:30 sereno Sereno 10 6 76 1021 10 E 11.1
Oggi h: 02:00 sereno Sereno 11 6 71 1022 10 E/NE 11.1
Oggi h: 01:30 sereno Sereno 11 6 71 1022 10 E/NE 9.3
Oggi h: 01:00 sereno Sereno 11 6 71 1022 10 E/NE 7.4
Oggi h: 00:30 sereno Sereno 11 6 71 1022 10 N 3.7
Oggi h: 00:00 sereno Sereno 12 6 66 1022 10 N 3.7
Ieri h: 23:30 sereno Sereno 12 7 71 1022 10 N 3.7
Ieri h: 23:00 sereno Sereno 13 7 66 1022 10 N 3.7
Ieri h: 22:30 sereno Sereno 13 7 66 1022 10 N 5.5
Ieri h: 22:00 sereno Sereno 13 7 66 1022 10 N 14.8
Ieri h: 21:30 sereno Sereno 14 7 62 1022 10 N 11.1
Ieri h: 21:00 sereno Sereno 14 7 62 1022 10 N 11.1
Ieri h: 20:30 sereno Sereno 14 7 62 1022 10 N 18.5
Ieri h: 20:00 sereno Sereno 15 7 58 1022 10 N 18.5
Ieri h: 19:30 sereno Sereno 15 7 58 1021 10 N 16.7
Ieri h: 19:00 sereno Sereno 15 7 58 1021 10 N 16.7
Ieri h: 18:30 sereno Sereno 16 7 55 1021 10 N/NO 14.8
Ieri h: 18:00 sereno Sereno 16 6 51 1021 10 N 20.3